RH
41 37 40 42 39 39 40 39 35 35 45 55 64 67 67 71 79 88 89 87 86 76 72 71 67 66 63 58 54 51 49 48 49 50 51 51 51 48 46 43 39 38 39 39 40 41 41 40 39 36 33 32 30 28 27 27 27 29 35 37 34 32 29 29 31 28 25 24 25 26 24 23 23 18 12 9 8 8 9 9 10 10 13 15 16 20 24 25
38 34 37 39 38 37 38 37 30 29 39 50 63 66 64 68 77 87 87 84 82 75 72 71 67 62 56 51 51 51 50 51 53 53 51 49 47 44 42 40 38 38 37 37 36 37 38 37 34 32 29 27 26 25 24 24 25 26 30 30 29 27 21 20 22 22 20 19 19 19 17 16 15 11 8 8 8 8 9 9 8 11 14 15 14 18 22 23
33 32 34 36 35 35 36 33 27 29 32 39 55 65 64 66 73 79 79 75 73 69 67 65 62 58 54 53 53 52 53 52 50 48 45 43 42 40 38 37 37 35 35 34 34 34 34 32 29 27 26 24 22 21 21 22 21 21 23 24 24 21 15 14 17 19 19 18 16 13 11 11 10 8 8 8 8 9 9 9 9 10 13 14 14 15 17 19
34 33 33 34 34 35 34 28 26 29 30 35 49 58 58 60 65 70 69 66 65 62 58 55 55 55 55 55 54 51 49 48 45 43 41 39 38 37 36 36 34 33 33 31 29 27 26 25 23 21 21 20 18 16 17 17 17 17 19 21 20 16 13 11 12 14 14 13 12 10 9 9 8 8 8 8 9 9 9 9 9 9 10 12 13 14 16 18
37 36 35 34 33 33 32 29 30 32 35 42 51 53 51 51 53 56 58 58 59 56 52 50 50 51 51 49 47 44 43 45 44 43 41 38 37 34 33 33 32 31 29 26 23 21 21 20 19 18 17 16 15 13 13 13 14 15 17 17 15 13 12 9 9 11 11 10 9 9 9 9 8 8 8 8 10 10 9 9 9 9 9 10 10 11 14 14
38 37 37 37 36 35 34 35 37 38 43 49 52 52 51 48 46 46 49 50 51 49 47 46 45 45 43 42 41 39 41 45 43 41 39 35 33 31 31 30 29 27 24 21 21 20 19 18 17 16 14 14 13 12 11 12 13 14 15 13 12 11 10 8 9 9 9 9 9 9 8 8 8 9 8 9 10 10 9 9 10 10 10 9 9 9 11 11
37 34 35 37 38 38 38 41 44 48 53 54 52 51 51 49 47 46 45 44 44 44 44 43 43 43 41 40 39 39 40 41 39 37 34 31 30 29 29 27 24 22 20 20 19 18 16 15 14 12 11 11 11 10 11 10 11 12 13 11 9 9 8 8 8 8 8 8 8 8 8 9 9 10 10 10 10 9 10 10 11 10 10 9 10 10 11 12
35 33 31 31 35 38 39 42 50 57 59 57 54 51 50 49 49 47 44 42 42 43 43 42 42 42 41 40 40 43 41 38 36 34 31 31 30 27 25 22 20 19 18 18 17 15 14 12 11 10 10 10 9 10 9 9 10 10 10 10 9 8 8 7 7 7 7 8 7 8 9 9 10 10 11 11 10 10 10 10 10 10 10 11 12 13 13 13
34 33 30 27 29 33 39 44 52 58 57 55 53 50 48 48 46 44 42 41 40 40 41 40 39 39 39 39 41 44 41 37 36 33 31 29 27 23 21 19 17 17 17 16 15 13 12 10 9 9 9 8 8 9 8 9 11 10 9 9 9 8 8 8 8 7 8 8 8 8 10 10 10 11 12 13 12 11 11 11 12 12 13 14 14 15 15 15
34 33 29 26 26 31 39 46 50 52 53 51 49 47 47 47 45 43 42 41 40 40 39 38 38 38 39 40 42 43 39 36 35 31 28 25 22 20 19 17 15 15 15 15 13 11 10 9 9 8 8 8 8 9 9 9 11 10 9 9 9 9 8 8 8 8 8 8 8 9 11 12 11 12 15 15 13 12 12 14 15 15 16 16 16 16 16 16
34 32 27 27 31 34 41 48 50 49 49 47 45 46 47 48 47 46 45 44 44 43 42 40 40 40 40 41 41 39 34 31 28 25 23 20 19 19 17 16 15 14 12 11 11 10 9 9 8 8 8 9 9 10 9 9 10 10 9 10 9 9 9 9 9 9 10 9 10 11 13 15 14 15 17 15 15 14 15 17 18 18 19 18 18 17 17 17
36 31 29 33 37 39 41 49 52 49 47 45 44 44 44 45 46 47 47 46 46 45 43 41 40 40 38 36 34 30 27 25 22 20 18 18 17 17 16 15 13 12 11 10 11 11 9 9 8 8 9 9 10 10 10 10 10 10 10 11 12 12 12 12 12 11 11 12 11 11 14 18 18 17 18 17 17 16 17 20 21 21 21 20 20 19 19 20
37 32 34 37 38 39 40 45 49 49 46 44 44 43 42 42 42 43 43 42 41 39 38 36 34 32 30 29 27 24 23 21 19 18 17 17 17 16 14 13 11 10 10 9 9 10 10 9 8 8 9 9 11 10 10 10 9 11 12 13 14 16 17 14 13 14 13 14 14 13 15 19 19 17 19 20 17 18 20 23 23 24 24 23 22 22 22 22
36 36 38 38 37 38 38 41 44 45 45 44 43 42 41 40 39 38 37 35 33 31 30 27 26 24 23 24 25 23 22 20 19 18 17 17 15 14 12 12 11 10 9 9 8 9 8 9 9 9 9 9 10 10 12 12 11 13 14 18 19 19 22 18 14 15 15 16 16 16 18 19 19 18 19 21 18 19 23 25 25 26 27 27 26 25 25 24
39 39 39 39 38 37 38 40 41 43 43 42 42 41 40 39 37 35 33 31 29 26 25 23 22 23 23 24 23 22 21 20 19 17 16 15 13 12 11 11 11 10 9 8 8 7 7 8 9 10 10 10 11 11 15 17 17 17 18 26 27 21 24 21 15 16 17 17 17 19 21 20 19 19 20 21 19 21 24 26 27 29 29 30 30 30 28 28
39 38 38 38 38 37 38 39 40 42 43 43 42 41 40 38 36 33 31 29 26 25 24 23 23 23 24 24 22 21 21 19 18 16 15 13 11 10 9 9 9 9 9 9 8 8 8 9 10 10 11 12 13 14 18 23 26 24 21 26 27 23 23 20 16 17 16 16 17 19 22 22 21 21 22 22 22 24 27 28 29 30 31 31 31 31 31 30
38 38 38 37 36 35 35 37 37 38 40 41 41 40 38 36 34 32 30 28 26 25 25 25 24 23 24 23 22 21 20 18 16 15 13 11 10 9 8 8 8 9 10 9 9 9 10 11 11 12 12 13 16 18 21 26 28 27 25 25 25 23 21 20 18 16 15 16 19 21 23 25 24 24 24 24 24 26 28 30 31 31 31 31 31 31 31 31
39 40 41 38 37 35 33 34 36 36 37 38 38 38 37 35 33 31 29 28 27 25 26 25 24 26 26 23 21 20 18 18 16 14 12 10 10 8 8 8 9 10 9 9 10 11 12 11 11 14 16 17 21 23 24 26 25 24 25 24 24 23 19 18 17 16 17 19 21 23 26 28 27 25 25 25 26 27 29 30 31 31 31 31 31 31 32 32
41 42 43 41 39 37 35 33 34 36 36 37 38 37 36 33 31 29 27 26 26 27 27 26 24 27 26 22 20 19 17 16 14 13 11 10 9 9 9 8 9 10 9 11 12 11 12 12 13 16 20 22 23 25 27 26 22 21 23 23 23 22 18 17 17 19 21 23 25 26 28 29 27 26 26 26 27 27 28 29 30 31 32 32 33 32 33 33
40 41 42 42 41 40 39 36 35 36 35 38 39 39 36 32 31 30 26 23 24 25 25 24 23 23 21 19 18 17 15 13 12 11 10 9 9 9 9 9 10 10 10 14 14 12 12 15 18 20 22 22 20 21 23 22 20 20 21 21 22 21 20 19 19 23 24 25 28 28 28 28 26 26 27 27 28 28 29 30 31 31 32 33 33 33 34 33
38 38 39 40 41 41 40 38 37 36 35 36 38 39 35 29 29 30 26 24 25 22 21 20 19 18 17 16 15 13 12 11 10 10 10 10 10 10 10 10 11 11 13 14 14 15 14 16 22 23 22 20 18 18 18 17 18 19 19 20 21 22 22 21 22 26 25 24 26 26 25 26 27 28 28 28 29 29 30 30 31 32 33 34 35 35 36 36
39 39 38 38 38 38 39 38 37 36 34 34 35 37 35 27 25 24 22 24 23 18 17 17 16 16 15 14 13 12 11 11 11 11 11 11 11 11 11 11 12 13 14 14 15 18 18 20 23 21 20 19 18 18 18 18 18 20 21 21 22 26 27 27 28 28 24 22 23 24 25 27 29 31 31 31 31 32 32 33 34 34 35 36 38 38 38 38
42 41 39 38 38 37 37 38 37 35 33 32 32 34 33 26 23 21 18 20 21 17 17 17 15 15 14 13 12 12 11 11 12 12 12 12 11 12 12 12 13 14 15 17 17 16 18 20 19 17 18 17 17 19 20 23 24 23 23 23 25 29 28 27 29 26 22 21 21 23 29 32 32 33 33 33 34 35 35 36 37 38 39 41 42 43 44 44
45 44 41 39 37 37 37 37 37 35 33 31 30 29 28 25 22 19 15 18 22 20 17 16 15 14 13 12 13 13 12 12 13 13 13 13 12 13 13 12 14 14 15 18 18 16 18 17 14 17 19 16 18 21 21 23 25 26 26 24 25 26 25 24 25 23 20 22 23 25 32 37 36 38 40 38 39 40 41 42 43 43 45 45 45 46 45 43
45 45 44 40 38 37 35 34 35 33 32 30 27 26 24 22 20 15 14 19 22 21 19 18 17 16 14 14 14 14 14 15 15 15 14 13 12 13 13 12 13 14 17 18 17 16 17 16 15 19 20 19 21 22 22 22 22 24 26 25 23 22 22 23 24 24 23 25 28 31 39 45 44 46 47 45 44 45 44 44 44 43 42 41 41 40 39 38
44 44 44 42 39 37 33 31 31 30 28 26 24 23 21 19 17 13 15 23 25 24 22 21 21 20 17 16 15 15 18 19 16 15 13 12 13 12 13 13 12 13 16 16 16 18 18 18 19 19 20 23 25 23 23 24 21 21 24 25 25 25 26 27 28 32 33 33 31 30 35 41 44 44 43 43 42 42 41 40 40 39 38 38 39 39 39 38
41 42 43 42 38 35 31 31 30 28 26 25 23 22 20 18 15 11 17 27 28 24 22 22 22 21 17 16 15 15 18 17 15 14 12 12 12 11 13 16 15 14 15 15 18 20 21 22 22 22 23 26 23 20 22 25 22 23 27 29 30 30 29 30 30 31 31 30 24 21 25 32 39 43 41 42 44 43 42 42 42 41 41 41 41 41 42 42
40 41 42 40 36 32 32 33 32 28 27 25 21 19 18 17 12 12 24 30 24 21 22 21 20 18 16 16 14 14 14 13 14 14 11 12 12 11 14 17 17 17 17 19 20 20 22 23 21 22 25 25 23 24 28 29 27 30 31 29 28 27 25 24 22 22 23 25 22 19 22 30 43 49 46 46 48 47 45 45 46 45 44 45 44 45 45 44
39 40 41 39 35 32 33 34 32 29 26 21 19 19 17 14 12 17 26 25 19 19 21 20 17 15 15 15 14 12 12 12 13 13 12 12 12 13 16 17 16 19 21 21 23 23 22 22 23 27 29 29 30 31 31 27 23 23 22 20 21 20 19 18 18 20 22 25 25 21 22 29 43 50 48 49 50 49 47 47 48 47 47 48 47 46 45 43
37 39 41 40 37 34 33 32 29 27 23 19 19 19 14 13 18 25 25 19 19 21 19 18 15 13 15 17 15 13 13 13 12 13 13 12 13 14 16 17 17 23 25 24 27 29 28 30 31 33 32 29 28 26 21 18 15 14 17 18 15 14 16 18 21 22 24 28 27 24 22 22 32 45 47 48 49 48 47 47 47 47 47 48 47 45 44 43
34 37 40 39 36 32 29 27 26 24 21 20 20 16 14 18 23 27 22 16 20 22 18 18 16 15 17 18 15 15 17 16 13 16 16 16 17 16 17 18 20 29 33 30 35 37 35 35 32 28 25 21 21 18 15 16 14 14 18 15 11 13 18 22 26 27 32 36 28 20 19 16 22 38 44 42 43 45 47 49 49 47 45 45 45 45 45 45
33 37 39 38 34 30 28 29 28 24 21 21 18 14 18 24 24 23 19 17 21 20 17 17 17 17 19 18 16 16 19 17 15 19 20 21 22 20 22 25 27 32 33 32 35 32 27 27 26 23 20 17 17 14 13 15 15 16 16 14 19 25 27 31 34 31 34 33 22 15 17 17 24 35 37 39 42 44 46 48 48 47 46 46 47 48 49 48
32 37 41 39 34 30 29 30 28 24 21 19 16 15 22 27 21 19 19 19 19 17 15 17 19 19 19 18 17 18 20 19 18 21 22 24 29 30 32 33 32 28 25 27 25 20 22 23 22 21 17 16 15 11 11 13 15 18 14 16 27 31 33 40 38 33 33 27 17 15 18 26 36 38 35 39 44 47 49 51 52 52 51 49 48 49 49 47
33 39 41 38 33 28 28 28 25 23 20 16 16 20 23 21 18 18 19 18 18 17 18 20 21 22 21 20 19 19 19 19 21 26 31 35 37 37 35 31 27 21 20 22 18 17 24 22 18 16 13 15 16 12 13 14 18 20 15 17 25 26 33 43 38 32 33 28 20 18 22 34 45 45 40 42 46 50 53 54 54 53 51 48 47 47 46 45
35 40 39 34 30 26 25 25 21 19 16 13 19 25 23 18 17 20 22 21 20 19 20 23 23 23 22 21 22 21 20 22 29 35 39 40 37 33 28 22 19 18 18 18 14 18 22 18 17 15 13 16 16 14 17 18 20 21 16 19 24 23 29 37 35 28 28 32 30 25 30 41 46 46 45 46 48 51 53 52 52 52 51 50 49 50 50 50
37 39 35 30 26 23 22 19 16 14 13 16 25 26 21 19 20 22 22 22 20 19 22 25 24 24 23 22 25 28 28 30 35 37 35 33 32 28 24 19 16 16 17 16 17 22 20 15 17 16 15 18 16 15 20 19 19 19 17 19 23 24 25 29 32 27 27 39 36 24 30 42 47 49 48 47 49 51 53 55 56 57 57 55 53 52 50 47
36 34 29 24 21 20 18 14 13 12 11 19 27 24 19 21 22 24 24 22 21 21 22 23 21 22 25 27 31 34 34 32 31 29 25 26 27 24 23 21 15 14 17 16 18 23 21 18 18 18 19 20 16 16 20 21 21 19 18 21 25 28 28 29 34 36 40 47 38 24 24 34 45 53 52 51 54 56 56 59 62 60 56 52 47 44 43 43
32 28 23 19 17 15 14 13 12 12 13 20 26 23 23 23 22 23 24 23 22 23 23 24 24 27 32 34 33 31 29 26 25 23 22 24 24 22 23 22 16 15 17 16 17 19 20 21 21 20 20 19 18 19 20 22 22 20 19 25 30 32 34 35 37 42 48 50 44 34 26 29 43 55 59 59 58 58 56 54 56 54 48 45 44 44 45 45
27 24 20 16 14 12 12 13 11 12 18 23 25 24 25 26 24 23 24 24 25 27 28 30 32 34 35 33 28 24 21 20 20 20 20 23 24 22 22 20 17 17 17 18 18 17 19 23 23 22 19 18 18 18 21 23 23 24 25 28 33 34 37 41 37 38 47 49 49 48 38 38 49 54 55 57 57 55 50 46 50 53 51 49 48 45 42 39
25 23 18 14 14 12 12 13 12 17 23 24 23 24 25 26 24 22 24 26 30 33 35 36 36 34 30 26 22 20 18 17 16 18 20 22 23 22 22 20 20 20 17 18 18 16 20 22 20 20 20 17 17 17 20 22 22 26 28 30 35 33 33 38 35 34 42 47 52 58 50 42 46 48 46 47 53 54 52 54 58 56 51 46 42 39 36 32
23 22 16 11 13 13 12 14 14 19 25 24 23 25 26 26 25 25 28 32 36 36 34 34 32 27 23 22 20 18 17 17 16 17 20 21 21 21 20 19 20 20 19 20 21 19 19 19 18 22 21 17 16 18 21 23 23 25 26 27 31 30 30 38 41 37 39 42 47 56 54 45 43 47 47 47 51 56 58 59 55 47 41 39 37 36 34 31
20 20 15 11 13 12 12 17 19 21 26 25 24 24 25 27 29 32 35 36 35 31 28 27 25 23 20 19 18 18 18 19 18 18 19 21 21 20 19 17 16 18 19 22 23 20 19 22 23 24 21 16 18 20 22 26 28 26 25 25 29 30 33 40 44 43 44 45 45 53 59 56 51 52 53 50 50 52 52 48 43 39 39 39 37 35 32 30
16 15 12 10 13 12 13 21 24 24 25 23 23 26 30 34 37 38 37 35 31 26 23 23 22 20 18 16 17 17 17 18 19 17 17 21 22 19 18 15 13 16 20 23 24 19 19 25 24 21 21 18 19 23 23 25 26 24 22 26 29 31 37 41 42 48 57 53 51 60 63 56 55 57 54 49 46 43 40 38 38 39 38 37 37 34 32 30
15 13 11 11 11 12 17 23 25 25 24 24 29 34 36 38 39 38 35 31 27 23 22 20 19 17 16 16 17 16 15 17 18 16 17 21 22 18 15 13 13 16 18 20 21 17 17 23 23 24 27 24 22 28 29 25 23 19 21 30 33 32 39 44 43 52 64 57 55 70 69 54 56 61 52 42 39 35 33 35 37 38 38 38 38 36 34 33
14 13 12 12 12 13 18 20 21 25 28 32 39 41 39 36 33 32 30 25 21 19 18 17 16 15 15 16 16 15 14 15 15 15 18 20 20 18 15 14 14 16 17 17 17 18 21 23 22 26 32 31 30 32 32 28 24 19 22 31 37 36 39 42 45 55 64 60 59 71 72 59 54 52 42 34 34 34 34 36 38 40 41 41 40 39 38 37
16 17 15 14 14 15 16 16 19 29 37 41 41 37 36 35 30 24 22 21 18 16 15 15 14 14 15 17 18 15 14 16 17 18 20 19 18 17 17 16 15 16 18 17 16 19 24 24 22 27 32 34 33 30 27 27 24 21 23 28 35 41 41 42 48 54 58 65 65 61 65 64 50 39 34 33 35 38 39 40 41 43 43 42 42 41 39 39
16 20 19 16 15 16 19 22 28 35 38 39 36 31 31 32 27 21 17 16 15 14 14 15 15 15 15 17 18 15 15 18 19 19 19 18 19 19 18 17 16 16 18 17 15 19 22 21 23 27 28 29 29 24 22 25 24 24 27 29 34 44 45 43 48 50 56 73 71 54 55 59 45 35 36 38 40 42 41 42 45 46 46 45 43 42 41 41
17 19 18 18 20 24 30 33 35 36 34 32 31 29 29 29 25 22 19 16 13 13 16 17 18 18 16 16 16 16 17 18 18 18 18 19 22 23 21 19 17 16 17 17 17 20 21 22 25 24 22 24 24 22 23 25 24 25 29 30 33 43 46 45 48 52 58 70 67 53 52 52 42 40 41 40 43 45 45 47 48 50 50 47 46 47 47 46
15 16 17 21 27 33 38 36 32 32 30 30 32 29 27 26 24 21 21 18 14 14 17 20 19 18 18 19 19 19 18 14 14 18 21 22 24 25 24 23 20 18 18 19 19 20 23 27 26 23 22 23 23 23 25 24 24 25 26 27 32 39 42 44 49 53 57 61 60 57 57 50 43 44 43 42 45 48 48 49 50 54 55 53 54 56 54 51
14 17 22 29 33 36 36 32 29 28 29 30 30 25 23 25 23 20 19 17 16 16 17 21 20 17 19 22 22 21 19 17 16 18 23 24 25 26 25 25 25 23 22 23 22 21 25 29 28 25 24 25 23 24 24 23 25 25 24 28 33 35 36 41 45 48 54 58 58 58 58 49 42 43 44 45 48 50 50 51 56 61 61 59 60 59 56 57
22 26 29 33 36 36 31 27 27 30 31 30 27 23 22 22 19 18 19 17 17 19 19 20 21 19 20 22 22 20 19 20 22 22 24 24 25 26 24 23 25 26 26 27 26 24 27 31 31 31 30 26 23 24 25 25 28 29 30 32 33 33 36 39 41 45 51 56 58 58 56 50 43 43 47 49 51 52 52 56 62 63 59 60 62 60 60 63
30 32 31 33 35 32 28 27 30 31 27 25 24 23 22 19 15 17 20 17 15 17 18 18 19 19 20 18 17 17 17 18 20 23 25 25 25 26 26 24 23 24 27 30 29 28 31 32 32 35 36 30 24 25 30 31 33 35 36 35 34 35 38 38 40 46 50 54 60 61 54 48 47 50 55 55 53 53 55 58 62 61 57 59 64 68 70 71